Location: Dumpton Point
(51.3500°N, 1.4433°E)
Time: 05:50:12
(UTC+00:00)

Altair - Pass Details

Date: 06 October 2022
Orbit: 1501 x 1682 km, 47.2° (Epoch: 04 December)

Event Time Altitude Azimuth Distance (km) Brightness Sun altitude
Rises 05:18:43 0° 242° (WSW) 4,770 - -7.7°
Exits shadow 05:19:47 - 242° (WSW) 4,436 9.4 -7.5°
Reaches altitude 10° 05:21:48 10° 240° (WSW) 3,811 9.0 -7.2°
Maximum altitude 05:31:21 62° 162° (SSE) 1,811 8.0 -5.7°
Drops below altitude 10° 05:41:13 10° 86° (E) 3,935 11.5 -4.2°
Sets 05:44:27 0° 83° (E) 4,933 12.4 -3.7°
